COSMOS 1823 DEB, 18801

Orbit data source: Space-Track

COSMOS 1823 DEB, 18801 is space debris in LEO originally from a launch on Fri, 20 Feb 1987 UTC launched from the Plesetsk Missile And Space Complex (PKMTR). Debris objects in space refer to the collection of defunct objects orbiting the Earth. Examples of debris include non-operational satellites, rocket bodies, and fragments generated from explosions, collisions, or faulty payload assembly.

Loading next visibility...
Identifier
18801, 1987-020AM
Orbit
LEO
Country
Flag of CISCIS
Related business
Manufacturer
Unknown
Mission
Spacecraft
Bus & Motor
Unknown
Mass
Unknown
Launch date (UTC)
1987-02-20 (39 years ago)
Launch vehicle
Unknown
Launch site
Plesetsk Missile And Space Complex (PKMTR)
Object type
Payload
Rocket body
Debris
Shape & HBR
Unknown shape, 0.1 m
Radar Cross Section
Medium (>0.1 m² and <1 m²)

Expand to show TLE details & history
Last TLE update: 2 days ago

TLE from 2 days ago
0 COSMOS 1823 DEB
1 18801U 87020AM  26171.31759002  .00000170  00000-0  86853-3 0  9990
2 18801  73.1264 119.5402 0130401 307.0081 207.5853 12.75542659787999
Epoch: 2026-06-20T07:37Z
TLE epoch observation values (Epoch: 2026-06-20T07:37:19.777Z)
Latitude
24.91901°
Longitude
-91.38717°
Altitude
1,451.662 km
Speed
7.097 km/s
True Right ascension
19h 25m 55s
True Declination
24° 47' 58"
Sunlit
Object was in full shadow at epoch
Visualization orbit readout
Latitude
Unknown
Longitude
Unknown
Altitude
Unknown
Speed
Unknown
Apparent Right ascension
Unknown
Apparent Declination
Unknown
Sunlit
N/A
Visualization observer readout
Local Sidereal Time
03:41:38
Azimuth
Unknown
Elevation
Unknown
Doppler factor
Unknown
Orbital elements
Apogee altitude
1,458.193 km
Perigee altitude
1,256.45 km
Semi-major axis
7,735.459 km
Eccentricity
0.01304
Inclination
73.1264°
RAAN
119.5402°
Arg. of periapsis
307.0081°
True anomaly
206.90322°
Mean anomaly
207.5853°
Eccentric anomaly
207.24328°
Mean motion
3.19017 °/min
Orbital period
112.85 mins
BSTAR
0.00086853
Loading maneuver chart data...
Computing Atmospheric mass density...

Documentation

Showing up to 5 results
|